Location: Unspecified
(0.0000°N, 0.0000°E)
Time: 06:30:28
(UTC+00:00)

Vanguard 2 - Pass Details

Date: 26 November 2019
Orbit: 553 x 2938 km, 32.9° (Epoch: 10 December)

Event Time Altitude Azimuth Distance (km) Brightness Sun altitude
Exits shadow 03:50:37 30° 264° (W) 4,318 10.8 -27.1°
Maximum altitude 04:00:33 54° 324° (NW) 3,268 10.3 -24.8°
Drops below altitude 10° 04:15:13 10° 38° (NE) 4,869 11.8 -21.4°
Sets 04:18:40 0° 43° (NE) 5,600 12.2 -20.6°
